| time (UTC) | temp F | wind direction | speed MPH | gust MPH | rain 1hr in | rain 24hr in | rain mn in | humidity % | barometer mb |
| 20260504050531 | 50 | 213 | 8.0 | 21.0 | 0.00 | 0.00 | 0.00 | 63 | 1010.9 |
| 20260504045525 | 50 | 243 | 11.0 | 25.0 | 0.00 | 0.00 | 0.00 | 63 | 1011.1 |
| 20260504045024 | 50 | 182 | 6.0 | 25.0 | 0.00 | 0.00 | 0.00 | 63 | 1011.1 |
| 20260504044526 | 50 | 201 | 9.0 | 25.0 | 0.00 | 0.00 | 0.00 | 62 | 1011.1 |
| 20260504044023 | 50 | 190 | 10.0 | 21.0 | 0.00 | 0.00 | 0.00 | 62 | 1011.2 |
| 20260504043522 | 50 | 206 | 7.0 | 17.0 | 0.00 | 0.00 | 0.00 | 62 | 1011.2 |
| 20260504043021 | 50 | 232 | 9.0 | 20.0 | 0.00 | 0.00 | 0.00 | 62 | 1011.2 |
| 20260504042521 | 51 | 215 | 10.0 | 20.0 | 0.00 | 0.00 | 0.00 | 62 | 1011.3 |
| 20260504042018 | 51 | 177 | 9.0 | 18.0 | 0.00 | 0.00 | 0.00 | 62 | 1011.3 |
| 20260504041517 | 51 | 120 | 9.0 | 20.0 | 0.00 | 0.00 | 0.00 | 62 | 1011.3 |
| 20260504041016 | 51 | 236 | 10.0 | 20.0 | 0.00 | 0.00 | 0.00 | 62 | 1011.4 |
| 20260504040515 | 51 | 191 | 8.0 | 18.0 | 0.00 | 0.00 | 0.00 | 63 | 1011.4 |
| 20260504040014 | 51 | 222 | 6.0 | 15.0 | 0.00 | 0.00 | 0.00 | 63 | 1011.4 |
| 20260504035515 | 51 | 205 | 6.0 | 15.0 | 0.00 | 0.00 | 0.00 | 63 | 1011.5 |
| 20260504035013 | 51 | 187 | 7.0 | 16.0 | 0.00 | 0.00 | 0.00 | 63 | 1011.5 |
| 20260504034523 | 51 | 221 | 6.0 | 17.0 | 0.00 | 0.00 | 0.00 | 63 | 1011.6 |
| 20260504034012 | 51 | 208 | 6.0 | 15.0 | 0.00 | 0.00 | 0.00 | 63 | 1011.7 |
| 20260504033511 | 51 | 152 | 9.0 | 15.0 | 0.00 | 0.00 | 0.00 | 63 | 1011.8 |
| 20260504033021 | 51 | 281 | 6.0 | 15.0 | 0.00 | 0.00 | 0.00 | 63 | 1011.9 |
| 20260504032511 | 51 | 184 | 4.0 | 18.0 | 0.00 | 0.00 | 0.00 | 63 | 1011.9 |
| 20260504032012 | 51 | 236 | 6.0 | 18.0 | 0.00 | 0.00 | 0.00 | 63 | 1011.9 |
| 20260504031510 | 51 | 208 | 7.0 | 16.0 | 0.00 | 0.00 | 0.00 | 63 | 1012.0 |
| 20260504031010 | 51 | 194 | 6.0 | 17.0 | 0.00 | 0.00 | 0.00 | 63 | 1012.0 |
| 20260504030512 | 50 | 223 | 9.0 | 17.0 | 0.00 | 0.00 | 0.00 | 63 | 1012.1 |
| 20260504030010 | 51 | 201 | 7.0 | 16.0 | 0.00 | 0.00 | 0.00 | 63 | 1012.1 |
| 20260504025512 | 51 | 179 | 10.0 | 16.0 | 0.00 | 0.00 | 0.00 | 63 | 1012.2 |
| 20260504025010 | 51 | 151 | 5.0 | 14.0 | 0.00 | 0.00 | 0.00 | 63 | 1012.2 |
| 20260504024530 | 51 | 209 | 7.0 | 15.0 | 0.00 | 0.00 | 0.00 | 63 | 1012.2 |
| 20260504024009 | 51 | 215 | 6.0 | 17.0 | 0.00 | 0.00 | 0.00 | 62 | 1012.3 |
| 20260504023509 | 51 | 205 | 9.0 | 17.0 | 0.00 | 0.00 | 0.00 | 62 | 1012.4 |
| 20260504023009 | 51 | 236 | 8.0 | 17.0 | 0.00 | 0.00 | 0.00 | 62 | 1012.5 |
| 20260504022509 | 51 | 218 | 7.0 | 15.0 | 0.00 | 0.00 | 0.00 | 62 | 1012.6 |
| 20260504022109 | 51 | 252 | 6.0 | 17.0 | 0.00 | 0.00 | 0.00 | 61 | 1012.7 |
| 20260504021508 | 51 | 233 | 9.0 | 18.0 | 0.00 | 0.00 | 0.00 | 61 | 1012.6 |
| 20260504021008 | 51 | 205 | 10.0 | 18.0 | 0.00 | 0.00 | 0.00 | 60 | 1012.6 |
| 20260504020508 | 52 | 222 | 9.0 | 23.0 | 0.00 | 0.00 | 0.00 | 59 | 1012.7 |
| 20260504020110 | 52 | 248 | 4.0 | 23.0 | 0.00 | 0.00 | 0.00 | 59 | 1012.6 |
| 20260504015507 | 52 | 269 | 12.0 | 29.0 | 0.00 | 0.00 | 0.00 | 57 | 1012.6 |
| 20260504015007 | 52 | 255 | 7.0 | 29.0 | 0.00 | 0.00 | 0.00 | 56 | 1012.5 |
| 20260504014507 | 52 | 240 | 14.0 | 26.0 | 0.00 | 0.00 | 0.00 | 54 | 1012.5 |
| 20260504014010 | 52 | 241 | 4.0 | 14.0 | 0.00 | 0.00 | 0.00 | 53 | 1012.4 |
| 20260504013506 | 52 | 228 | 5.0 | 14.0 | 0.00 | 0.00 | 0.00 | 53 | 1012.2 |
| 20260504013006 | 53 | 236 | 6.0 | 13.0 | 0.00 | 0.00 | 0.00 | 53 | 1012.0 |
| 20260504012506 | 53 | 215 | 7.0 | 13.0 | 0.00 | 0.00 | 0.00 | 52 | 1011.9 |
| 20260504012006 | 53 | 221 | 5.0 | 14.0 | 0.00 | 0.00 | 0.00 | 52 | 1011.9 |
| 20260504011505 | 53 | 204 | 7.0 | 14.0 | 0.00 | 0.00 | 0.00 | 52 | 1011.9 |
| 20260504011006 | 53 | 178 | 4.0 | 10.0 | 0.00 | 0.00 | 0.00 | 52 | 1011.9 |
| 20260504010510 | 54 | 218 | 4.0 | 10.0 | 0.00 | 0.00 | 0.00 | 51 | 1012.0 |
| 20260504010005 | 54 | 231 | 5.0 | 11.0 | 0.00 | 0.00 | 0.00 | 51 | 1012.0 |
| 20260504005505 | 54 | 206 | 5.0 | 11.0 | 0.00 | 0.00 | 0.00 | 51 | 1011.9 |
| 20260504005005 | 54 | 204 | 4.0 | 11.0 | 0.00 | 0.00 | 0.00 | 50 | 1011.9 |
| 20260504004508 | 54 | 245 | 4.0 | 14.0 | 0.00 | 0.00 | 0.00 | 50 | 1011.9 |
| 20260504004005 | 55 | 218 | 5.0 | 17.0 | 0.00 | 0.00 | 0.00 | 49 | 1011.8 |
| 20260504003505 | 55 | 202 | 8.0 | 17.0 | 0.00 | 0.00 | 0.00 | 49 | 1011.8 |
| 20260504003004 | 55 | 228 | 8.0 | 15.0 | 0.00 | 0.00 | 0.00 | 48 | 1011.8 |
| 20260504002503 | 55 | 208 | 7.0 | 20.0 | 0.00 | 0.00 | 0.00 | 48 | 1011.8 |
| 20260504002003 | 56 | 214 | 11.0 | 20.0 | 0.00 | 0.00 | 0.00 | 47 | 1011.8 |
| 20260504001503 | 56 | 239 | 9.0 | 22.0 | 0.00 | 0.00 | 0.00 | 47 | 1011.8 |
| 20260504001005 | 56 | 233 | 8.0 | 23.0 | 0.00 | 0.00 | 0.00 | 47 | 1011.9 |
| 20260504000502 | 57 | 260 | 12.0 | 23.0 | 0.00 | 0.00 | 0.00 | 46 | 1011.9 |
| 20260504000001 | 57 | 217 | 5.0 | 19.0 | 0.00 | 0.00 | 0.00 | 46 | 1011.9 |
| 20260503235503 | 57 | 192 | 13.0 | 19.0 | 0.00 | 0.00 | 0.00 | 46 | 1011.9 |
| 20260503235002 | 57 | 221 | 10.0 | 22.0 | 0.00 | 0.00 | 0.00 | 46 | 1012.0 |
| 20260503234502 | 57 | 213 | 10.0 | 22.0 | 0.00 | 0.00 | 0.00 | 46 | 1011.9 |
| 20260503234001 | 57 | 196 | 7.0 | 25.0 | 0.00 | 0.00 | 0.00 | 47 | 1012.0 |
| 20260503233601 | 57 | 247 | 7.0 | 25.0 | 0.00 | 0.00 | 0.00 | 47 | 1012.0 |
| 20260503233502 | 57 | 252 | 8.0 | 25.0 | 0.00 | 0.00 | 0.00 | 46 | 1012.0 |
| 20260503233059 | 57 | 218 | 9.0 | 28.0 | 0.00 | 0.00 | 0.00 | 47 | 1012.1 |
| 20260503232558 | 57 | 209 | 8.0 | 28.0 | 0.00 | 0.00 | 0.00 | 47 | 1012.2 |
| 20260503232058 | 57 | 245 | 10.0 | 35.0 | 0.00 | 0.00 | 0.00 | 48 | 1012.1 |
| 20260503231558 | 57 | 197 | 12.0 | 35.0 | 0.00 | 0.00 | 0.00 | 47 | 1012.1 |
| 20260503231059 | 57 | 197 | 8.0 | 23.0 | 0.00 | 0.00 | 0.00 | 48 | 1012.2 |
| 20260503230556 | 57 | 232 | 9.0 | 21.0 | 0.00 | 0.00 | 0.00 | 47 | 1012.1 |
| 20260503230055 | 57 | 202 | 10.0 | 28.0 | 0.00 | 0.00 | 0.00 | 47 | 1012.1 |
| 20260503225554 | 57 | 239 | 10.0 | 27.0 | 0.00 | 0.00 | 0.00 | 48 | 1012.2 |
| 20260503225054 | 57 | 305 | 11.0 | 26.0 | 0.00 | 0.00 | 0.00 | 47 | 1012.2 |
| 20260503224553 | 57 | 227 | 14.0 | 27.0 | 0.00 | 0.00 | 0.00 | 46 | 1012.3 |
| 20260503224053 | 57 | 248 | 13.0 | 27.0 | 0.00 | 0.00 | 0.00 | 47 | 1012.3 |
| 20260503223552 | 57 | 212 | 13.0 | 27.0 | 0.00 | 0.00 | 0.00 | 46 | 1012.4 |
| 20260503223053 | 58 | 225 | 13.0 | 27.0 | 0.00 | 0.00 | 0.00 | 46 | 1012.4 |
| 20260503222549 | 58 | 274 | 12.0 | 24.0 | 0.00 | 0.00 | 0.00 | 47 | 1012.5 |
| 20260503222053 | 58 | 234 | 12.0 | 26.0 | 0.00 | 0.00 | 0.00 | 47 | 1012.4 |
| 20260503221553 | 58 | 244 | 16.0 | 31.0 | 0.00 | 0.00 | 0.00 | 47 | 1012.4 |
| 20260503221052 | 58 | 194 | 9.0 | 31.0 | 0.00 | 0.00 | 0.00 | 47 | 1012.4 |
| 20260503220549 | 58 | 236 | 13.0 | 27.0 | 0.00 | 0.00 | 0.00 | 47 | 1012.5 |
| 20260503220051 | 58 | 236 | 13.0 | 27.0 | 0.00 | 0.00 | 0.00 | 47 | 1012.5 |
| 20260503215548 | 58 | 228 | 14.0 | 25.0 | 0.00 | 0.00 | 0.00 | 46 | 1012.5 |
| 20260503215048 | 58 | 253 | 12.0 | 27.0 | 0.00 | 0.00 | 0.00 | 46 | 1012.6 |
| 20260503214548 | 58 | 207 | 10.0 | 29.0 | 0.00 | 0.00 | 0.00 | 47 | 1012.5 |
| 20260503214049 | 58 | 237 | 13.0 | 31.0 | 0.00 | 0.00 | 0.00 | 47 | 1012.6 |
| 20260503213548 | 58 | 227 | 15.0 | 31.0 | 0.00 | 0.00 | 0.00 | 47 | 1012.7 |
| 20260503213047 | 58 | 216 | 15.0 | 26.0 | 0.00 | 0.00 | 0.00 | 47 | 1012.6 |
| 20260503212547 | 58 | 226 | 14.0 | 35.0 | 0.00 | 0.00 | 0.00 | 46 | 1012.6 |
| 20260503212047 | 58 | 233 | 16.0 | 35.0 | 0.00 | 0.00 | 0.00 | 46 | 1012.5 |
| 20260503211546 | 59 | 214 | 12.0 | 31.0 | 0.00 | 0.00 | 0.00 | 45 | 1012.6 |
| 20260503211049 | 59 | 240 | 18.0 | 28.0 | 0.00 | 0.00 | 0.00 | 46 | 1012.6 |
| 20260503210546 | 59 | 288 | 15.0 | 27.0 | 0.00 | 0.00 | 0.00 | 45 | 1012.5 |
| 20260503210045 | 59 | 224 | 12.0 | 28.0 | 0.00 | 0.00 | 0.00 | 45 | 1012.5 |
| 20260503205545 | 60 | 247 | 18.0 | 28.0 | 0.00 | 0.00 | 0.00 | 44 | 1012.5 |
| 20260503205045 | 60 | 253 | 11.0 | 27.0 | 0.00 | 0.00 | 0.00 | 45 | 1012.5 |
| 20260503204547 | 59 | 216 | 16.0 | 27.0 | 0.00 | 0.00 | 0.00 | 44 | 1012.5 |
| 20260503204044 | 60 | 213 | 11.0 | 26.0 | 0.00 | 0.00 | 0.00 | 45 | 1012.6 |
| 20260503203544 | 59 | 183 | 14.0 | 24.0 | 0.00 | 0.00 | 0.00 | 44 | 1012.6 |
| 20260503203042 | 59 | 205 | 11.0 | 28.0 | 0.00 | 0.00 | 0.00 | 43 | 1012.5 |
| 20260503202542 | 60 | 209 | 17.0 | 28.0 | 0.00 | 0.00 | 0.00 | 42 | 1012.6 |
| 20260503202041 | 60 | 235 | 10.0 | 29.0 | 0.00 | 0.00 | 0.00 | 43 | 1012.7 |
| 20260503201539 | 60 | 264 | 16.0 | 29.0 | 0.00 | 0.00 | 0.00 | 43 | 1012.8 |
| 20260503201040 | 61 | 227 | 16.0 | 26.0 | 0.00 | 0.00 | 0.00 | 44 | 1012.8 |
| 20260503200538 | 60 | 259 | 12.0 | 37.0 | 0.00 | 0.00 | 0.00 | 46 | 1012.9 |
| 20260503200038 | 60 | 254 | 19.0 | 37.0 | 0.00 | 0.00 | 0.00 | 45 | 1013.1 |
| 20260503195537 | 60 | 202 | 19.0 | 31.0 | 0.00 | 0.00 | 0.00 | 45 | 1013.2 |
| 20260503195036 | 60 | 201 | 18.0 | 27.0 | 0.00 | 0.00 | 0.00 | 47 | 1013.3 |
| 20260503194542 | 59 | 242 | 11.0 | 29.0 | 0.00 | 0.00 | 0.00 | 47 | 1013.3 |
| 20260503194035 | 59 | 259 | 8.0 | 33.0 | 0.00 | 0.00 | 0.00 | 46 | 1013.5 |
| 20260503193534 | 59 | 236 | 15.0 | 33.0 | 0.00 | 0.00 | 0.00 | 45 | 1013.6 |
| 20260503193040 | 60 | 213 | 15.0 | 31.0 | 0.00 | 0.00 | 0.00 | 45 | 1013.5 |
| 20260503192532 | 60 | 204 | 18.0 | 31.0 | 0.00 | 0.00 | 0.00 | 44 | 1013.7 |
| 20260503192031 | 60 | 218 | 17.0 | 32.0 | 0.00 | 0.00 | 0.00 | 44 | 1013.8 |
| 20260503191531 | 60 | 188 | 19.0 | 32.0 | 0.00 | 0.00 | 0.00 | 46 | 1013.8 |
| 20260503191033 | 60 | 215 | 17.0 | 28.0 | 0.00 | 0.00 | 0.00 | 44 | 1014.0 |
| 20260503190530 | 61 | 250 | 10.0 | 37.0 | 0.00 | 0.00 | 0.00 | 44 | 1013.9 |
| 20260503190039 | 61 | 252 | 20.0 | 37.0 | 0.00 | 0.00 | 0.00 | 44 | 1014.0 |
| 20260503185529 | 61 | 217 | 8.0 | 28.0 | 0.00 | 0.00 | 0.00 | 42 | 1014.1 |
| 20260503185031 | 62 | 216 | 14.0 | 29.0 | 0.00 | 0.00 | 0.00 | 44 | 1014.1 |
| 20260503184527 | 61 | 235 | 15.0 | 29.0 | 0.00 | 0.00 | 0.00 | 44 | 1014.2 |
| 20260503184026 | 61 | 224 | 11.0 | 33.0 | 0.00 | 0.00 | 0.00 | 45 | 1014.3 |
| 20260503183525 | 61 | 225 | 21.0 | 33.0 | 0.00 | 0.00 | 0.00 | 45 | 1014.5 |
| 20260503183024 | 60 | 222 | 10.0 | 31.0 | 0.00 | 0.00 | 0.00 | 46 | 1014.4 |
| 20260503182531 | 60 | 199 | 13.0 | 31.0 | 0.00 | 0.00 | 0.00 | 45 | 1014.4 |
| 20260503182026 | 60 | 252 | 15.0 | 31.0 | 0.00 | 0.00 | 0.00 | 46 | 1014.5 |
| 20260503181525 | 60 | 231 | 10.0 | 30.0 | 0.00 | 0.00 | 0.00 | 45 | 1014.5 |
| 20260503181023 | 60 | 331 | 10.0 | 29.0 | 0.00 | 0.00 | 0.00 | 45 | 1014.5 |
| 20260503180522 | 61 | 209 | 14.0 | 29.0 | 0.00 | 0.00 | 0.00 | 47 | 1014.7 |
| 20260503180023 | 61 | 228 | 15.0 | 28.0 | 0.00 | 0.00 | 0.00 | 45 | 1014.7 |
| 20260503175521 | 61 | 224 | 13.0 | 25.0 | 0.00 | 0.00 | 0.00 | 47 | 1014.8 |
| 20260503175022 | 61 | 264 | 13.0 | 25.0 | 0.00 | 0.00 | 0.00 | 49 | 1015.0 |
| 20260503174518 | 61 | 211 | 13.0 | 29.0 | 0.00 | 0.00 | 0.00 | 47 | 1015.0 |
| 20260503174018 | 60 | 224 | 17.0 | 29.0 | 0.00 | 0.00 | 0.00 | 47 | 1015.0 |
| 20260503173518 | 60 | 236 | 9.0 | 26.0 | 0.00 | 0.00 | 0.00 | 48 | 1015.0 |
| 20260503173020 | 60 | 230 | 10.0 | 22.0 | 0.00 | 0.00 | 0.00 | 49 | 1015.1 |
| 20260503172514 | 60 | 339 | 9.0 | 24.0 | 0.00 | 0.00 | 0.00 | 47 | 1015.2 |
| 20260503172014 | 60 | 269 | 12.0 | 26.0 | 0.00 | 0.00 | 0.00 | 49 | 1015.3 |
| 20260503171514 | 60 | 325 | 12.0 | 26.0 | 0.00 | 0.00 | 0.00 | 49 | 1015.4 |
| 20260503171113 | 60 | 214 | 11.0 | 25.0 | 0.00 | 0.00 | 0.00 | 49 | 1015.3 |
| 20260503170511 | 60 | 208 | 14.0 | 26.0 | 0.00 | 0.00 | 0.00 | 50 | 1015.4 |
| 20260503150544 | 54 | 217 | 14.0 | 25.0 | 0.00 | 0.00 | 0.00 | 51 | 1016.4 |
| 20260503131013 | 43 | 222 | 9.0 | 17.0 | 0.00 | 0.00 | 0.00 | 60 | 1017.2 |
| 20260503130512 | 43 | 264 | 8.0 | 17.0 | 0.00 | 0.00 | 0.00 | 61 | 1017.2 |
| 20260503110553 | 36 | 222 | 8.0 | 13.0 | 0.00 | 0.03 | 0.00 | 72 | 1016.7 |
| 20260503081545 | 36 | 203 | 6.0 | 14.0 | 0.00 | 0.13 | 0.00 | 75 | 1016.6 |
| 20260503081035 | 36 | 225 | 5.0 | 12.0 | 0.00 | 0.13 | 0.00 | 75 | 1016.6 |
| 20260503080539 | 36 | 233 | 5.0 | 11.0 | 0.00 | 0.13 | 0.00 | 75 | 1016.6 |
| 20260503072530 | 37 | 213 | 5.0 | 10.0 | 0.00 | 0.13 | 0.00 | 75 | 1016.6 |
| 20260503072033 | 37 | 228 | 6.0 | 10.0 | 0.00 | 0.13 | 0.00 | 75 | 1016.6 |
| 20260503071629 | 37 | 245 | 5.0 | 11.0 | 0.00 | 0.13 | 0.00 | 75 | 1016.6 |
| 20260503071028 | 37 | 240 | 6.0 | 12.0 | 0.00 | 0.13 | 0.00 | 75 | 1016.6 |
| 20260503070529 | 37 | 228 | 6.0 | 13.0 | 0.00 | 0.13 | 0.00 | 76 | 1016.6 |